Retour au catalogue

CZ-3A DEB

ActifHEO
NORAD 40157·DEBRIS·🇨🇳 China

Lancé Feb 2, 2007 depuis Xichang Satellite Launch Center

Loading…

Prochains Passages (prochaines 24 heures)

TLE

PériméSource: Space-Track

Époque: Aug 18, 2026, 06:06 UTC

1 40157U 07003AR  26230.25445826 -.00000659  00000-0 -40061-1 0  9990
2 40157  25.2680 338.4524 7436077  72.1256 352.8856  1.83711063109443

Suivez CZ-3A DEB en temps réel avec AllMySat

Download on the App Store